Flag for France Weather past 2 weeks in Villeurbanne, France

Now
52 °F

Clear.


Feels Like: 52 °F
Forecast: 51 / 61 °F
Wind: No wind

Location: Lyon / Bron

Current Time: Apr 26, 2015 at 7:14:30 AM

Latest Report: Apr 26, 2015 at 6:30 AM


Visibility: N/A

Pressure: 29.83 "Hg

Humidity: 88%

Dew point: 48 °F

Location of VilleurbanneLocation

Historic Weather in Villeurbanne — Graph

°F

Villeurbanne temperature yesterday

Maximum temperature yesterday: 68 °F (at 1:30 PM)
Minimum temperature yesterday: 57 °F (at 10:30 PM)
Average temperature yesterday: 61 °F

Past Weeks' High & Low Weather Summary

 TemperatureHumidityPressure
High79 °F (Apr 15, 4:00 PM)100% (Apr 20, 3:00 AM)30.45 "Hg (Apr 20, 3:00 AM)
Low43 °F (Apr 19, 6:30 AM)16% (Apr 15, 6:00 PM)29.83 "Hg (Apr 26, 5:00 AM)
Average60 °F58%30.12 "Hg
* Reported Apr 11 6:00 AM — Apr 26 6:00 AM, Villeurbanne, Weather by CustomWeather, © 2015

Note: Actual official high and low records may vary slightly from our data, if they occured in-between our weather recording intervals... More about our weather records

Advertising

Villeurbanne weather history for previous 24 hours

 ConditionsComfort  
Time TempWeatherWind HumidityBarometerVisibility
6:00 AM
Sun, Apr 26
52 °FClear.3 mph88%29.83 "HgN/A
5:30 AM54 °FClear.3 mph82%29.83 "HgN/A
5:00 AM55 °FClear.5 mph82%29.83 "HgN/A
4:30 AM55 °FClear.7 mph82%29.86 "HgN/A
4:00 AM55 °FClear.3 mph82%29.86 "HgN/A
3:30 AM57 °FClear.8 mph77%29.86 "HgN/A
3:00 AM57 °FClear.5 mph82%29.89 "HgN/A
2:30 AM57 °FCool.5 mph82%29.89 "HgN/A
2:00 AM59 °FMostly cloudy.6 mph82%29.89 "HgN/A
1:30 AM59 °FPassing clouds.8 mph77%29.92 "HgN/A
1:00 AM59 °FMostly cloudy.8 mph77%29.92 "HgN/A
12:30 AM59 °FCool.10 mph77%29.92 "HgN/A
12:00 AM59 °FLight rain. Overcast.7 mph82%29.92 "HgN/A
11:00 PM
Sat, Apr 25
59 °FClear.2 mph82%29.92 "HgN/A
10:30 PM57 °FClear.No wind88%29.92 "HgN/A
10:00 PM59 °FClear.3 mph82%29.92 "Hg4 mi
9:30 PM59 °FClear.7 mph82%29.89 "HgN/A
9:00 PM59 °FClear.7 mph82%29.89 "HgN/A
8:30 PM59 °FClear.8 mph82%29.89 "HgN/A
8:00 PM59 °FClear.7 mph82%29.89 "HgN/A
7:30 PM59 °FClear.3 mph82%29.89 "HgN/A
7:00 PM59 °FClear.3 mph82%29.89 "HgN/A
6:30 PM61 °FCool.8 mph77%29.92 "HgN/A
6:00 PM61 °FCool.5 mph77%29.89 "HgN/A
5:30 PM59 °FPartly sunny.8 mph88%29.92 "HgN/A
5:00 PM59 °FRain. Fog.8 mph88%29.92 "Hg2 mi
4:30 PM59 °FHeavy rain. Fog.5 mph88%29.92 "Hg2 mi
4:00 PM61 °FThundershowers. More clouds than sun.6 mph83%29.89 "HgN/A
3:30 PM59 °FLight rain. Mostly cloudy.10 mph88%29.92 "Hg4 mi
3:00 PM61 °FRain. Fog.12 mph77%29.92 "Hg3 mi
2:30 PM64 °FLight rain. Partly sunny.13 mph64%29.92 "HgN/A
2:00 PM66 °FBroken clouds.16 mph60%29.92 "HgN/A
1:30 PM68 °FMild.22 mph53%29.92 "HgN/A
1:00 PM66 °FMostly cloudy.13 mph56%29.92 "HgN/A
12:30 PM63 °FClear.10 mph64%29.92 "HgN/A
12:00 PM63 °FClear.13 mph64%29.95 "HgN/A
11:30 AM63 °FClear.13 mph64%29.95 "HgN/A
11:00 AM61 °FBroken clouds.14 mph68%29.95 "HgN/A
10:30 AM61 °FLight rain. Mostly cloudy.12 mph68%29.95 "HgN/A
10:00 AM61 °FLight rain. Cloudy.14 mph68%29.95 "HgN/A
9:30 AM61 °FLight rain. Cloudy.17 mph68%29.92 "HgN/A
9:00 AM63 °FMild.14 mph59%29.92 "HgN/A
8:30 AM61 °FClear.16 mph63%29.92 "HgN/A
8:00 AM61 °FClear.17 mph63%29.92 "HgN/A
7:30 AM61 °FClear.16 mph63%29.92 "HgN/A
7:00 AM61 °FClear.14 mph63%29.89 "HgN/A
Weather by CustomWeather, © 2015

See weather overviewHow to use our weather pages